Location: Mohawk View
(42.7837°N, 73.7885°W)
Time: 08:33:16
(UTC+00:00)

Cosmos 2219 Rocket - Pass Details

Date: 17 June 2021
Orbit: 829 x 846 km, 71.0° (Epoch: 28 July)

Event Time Altitude Azimuth Distance (km) Brightness Sun altitude
Exits shadow 02:29:07 24° 150° (SSE) 1,672 3.1 -15.7°
Maximum altitude 02:31:35 35° 105° (ESE) 1,333 2.9 -15.9°
Drops below altitude 10° 02:36:41 10° 41° (NE) 2,473 4.8 -16.5°
Sets 02:39:18 0° 33° (NNE) 3,411 5.7 -16.7°
